Back to Top

Language: 

My Weather Underground Personal Weather Station Historical Data with Graphs...

Delerius Weather Station Historical Data
Daily Summary for February 21, 2017 Units:  Metric    English   Both
« Previous Day
Next Day »
Daily Weekly Monthly Yearly Custom
  High: Low: Average:
Temperature: 12.7 °C 6.1 °C 9.8 °C
Dew Point: 10.6 °C 4.4 °C 7.7 °C
Humidity: 92 % 80 % 86 %
Wind Speed: 35.4 km/h 0 km/h 15.3 km/h
Wind Gust: 48.3 km/h - -
Wind:- - West
Pressure: 1015.1 hPa 1000.6 hPa -
Precipitation: 0 mm    
Historical Graphs
 
 
Tabular Data for February 21, 2017
Time Temperature Dew Point Pressure Wind Wind Speed Wind Gust Humidity Rainfall Rate (Hourly) solar Conditions
00:00 8.6 °C 6.2 °C 1014.8 hPa West 11.3 km/h 17.7 km/h 85 % 0 mm 0 W/m2
00:05 8.6 °C 6.2 °C 1014.8 hPa WNW 11.3 km/h 19.3 km/h 85 % 0 mm 0 W/m2
00:15 8.4 °C 6.1 °C 1015.1 hPa WSW 9.7 km/h 16.1 km/h 85 % 0 mm 0 W/m2
00:20 8.4 °C 6.1 °C 1014.8 hPa WSW 8 km/h 8 km/h 85 % 0 mm 0 W/m2
00:25 8.4 °C 6 °C 1014.8 hPa WSW 9.7 km/h 11.3 km/h 85 % 0 mm 0 W/m2
00:30 8.4 °C 6 °C 1015.1 hPa West 8 km/h 8 km/h 85 % 0 mm 0 W/m2
00:35 8.3 °C 5.9 °C 1015.1 hPa West 8 km/h 9.7 km/h 85 % 0 mm 0 W/m2
00:40 8.3 °C 5.9 °C 1015.1 hPa West 11.3 km/h 11.3 km/h 85 % 0 mm 0 W/m2
00:50 8.3 °C 5.8 °C 1015.1 hPa West 12.9 km/h 12.9 km/h 84 % 0 mm 0 W/m2
01:00 8.3 °C 5.8 °C 1015.1 hPa WNW 9.7 km/h 14.5 km/h 84 % 0 mm 0 W/m2
01:05 8.3 °C 5.8 °C 1015.1 hPa West 12.9 km/h 25.7 km/h 84 % 0 mm 0 W/m2
01:10 8.3 °C 5.7 °C 1014.8 hPa West 11.3 km/h 25.7 km/h 84 % 0 mm 0 W/m2
01:15 8.3 °C 5.7 °C 1014.8 hPa West 9.7 km/h 25.7 km/h 84 % 0 mm 0 W/m2
01:20 8.2 °C 5.7 °C 1014.8 hPa West 9.7 km/h 9.7 km/h 84 % 0 mm 0 W/m2
01:25 8.2 °C 5.8 °C 1014.8 hPa West 9.7 km/h 25.7 km/h 85 % 0 mm 0 W/m2
01:30 8.2 °C 5.8 °C 1014.8 hPa WNW 9.7 km/h 9.7 km/h 85 % 0 mm 0 W/m2
01:40 8.1 °C 5.7 °C 1014.8 hPa West 8 km/h 25.7 km/h 85 % 0 mm 0 W/m2
01:45 8.1 °C 5.8 °C 1014.4 hPa West 11.3 km/h 25.7 km/h 86 % 0 mm 0 W/m2
01:50 8 °C 5.8 °C 1014.4 hPa West 12.9 km/h 12.9 km/h 86 % 0 mm 0 W/m2
01:55 8 °C 5.8 °C 1014.4 hPa West 11.3 km/h 14.5 km/h 86 % 0 mm 0 W/m2
02:00 7.9 °C 5.9 °C 1014.8 hPa West 12.9 km/h 25.7 km/h 87 % 0 mm 0 W/m2
02:05 7.9 °C 5.9 °C 1014.8 hPa WNW 12.9 km/h 25.7 km/h 87 % 0 mm 0 W/m2
02:10 7.9 °C 5.9 °C 1014.8 hPa WNW 11.3 km/h 25.7 km/h 87 % 0 mm 0 W/m2
02:20 7.9 °C 5.9 °C 1014.8 hPa NW 9.7 km/h 9.7 km/h 87 % 0 mm 0 W/m2
02:25 7.9 °C 5.9 °C 1014.8 hPa West 6.4 km/h 11.3 km/h 87 % 0 mm 0 W/m2
02:30 7.9 °C 5.9 °C 1014.8 hPa West 6.4 km/h 25.7 km/h 87 % 0 mm 0 W/m2
02:35 7.9 °C 5.9 °C 1014.8 hPa WNW 4.8 km/h 25.7 km/h 87 % 0 mm 0 W/m2
02:40 7.9 °C 5.9 °C 1014.8 hPa West 6.4 km/h 6.4 km/h 87 % 0 mm 0 W/m2
02:45 7.9 °C 5.9 °C 1014.4 hPa WNW 6.4 km/h 25.7 km/h 87 % 0 mm 0 W/m2
02:50 7.9 °C 5.9 °C 1014.4 hPa WNW 4.8 km/h 25.7 km/h 87 % 0 mm 0 W/m2
02:55 7.9 °C 5.9 °C 1014.4 hPa WNW 4.8 km/h 25.7 km/h 87 % 0 mm 0 W/m2
03:05 7.9 °C 5.7 °C 1014.4 hPa NW 4.8 km/h 25.7 km/h 86 % 0 mm 0 W/m2
03:15 7.8 °C 5.6 °C 1014.4 hPa WNW 3.2 km/h 8 km/h 86 % 0 mm 0 W/m2
03:20 7.7 °C 5.7 °C 1014.4 hPa WNW 4.8 km/h 25.7 km/h 87 % 0 mm 0 W/m2
03:25 7.7 °C 5.7 °C 1014.4 hPa WNW 6.4 km/h 25.7 km/h 87 % 0 mm 0 W/m2
03:30 7.7 °C 5.7 °C 1014.4 hPa WNW 8 km/h 25.7 km/h 87 % 0 mm 0 W/m2
03:35 7.7 °C 5.8 °C 1014.4 hPa WNW 6.4 km/h 25.7 km/h 88 % 0 mm 0 W/m2
03:40 7.7 °C 5.7 °C 1014.4 hPa WNW 6.4 km/h 6.4 km/h 87 % 0 mm 0 W/m2
03:45 7.6 °C 5.6 °C 1014.4 hPa WNW 6.4 km/h 25.7 km/h 87 % 0 mm 0 W/m2
03:50 7.6 °C 5.6 °C 1014.4 hPa WNW 8 km/h 8 km/h 87 % 0 mm 0 W/m2
04:00 7.5 °C 5.7 °C 1014.1 hPa NW 11.3 km/h 11.3 km/h 88 % 0 mm 0 W/m2
04:05 7.4 °C 5.6 °C 1014.1 hPa WNW 11.3 km/h 16.1 km/h 88 % 0 mm 0 W/m2
04:10 7.4 °C 5.6 °C 1014.1 hPa WNW 12.9 km/h 25.7 km/h 88 % 0 mm 0 W/m2
04:15 7.4 °C 5.6 °C 1014.1 hPa WNW 14.5 km/h 25.7 km/h 88 % 0 mm 0 W/m2
04:25 7.4 °C 5.6 °C 1013.8 hPa WNW 14.5 km/h 25.7 km/h 88 % 0 mm 0 W/m2
04:30 7.4 °C 5.6 °C 1014.1 hPa WNW 11.3 km/h 11.3 km/h 88 % 0 mm 0 W/m2
04:40 7.3 °C 5.4 °C 1014.4 hPa NW 8 km/h 8 km/h 88 % 0 mm 0 W/m2
04:45 7.2 °C 5.4 °C 1014.1 hPa NW 8 km/h 25.7 km/h 88 % 0 mm 0 W/m2
04:50 7.2 °C 5.3 °C 1014.1 hPa WNW 8 km/h 25.7 km/h 88 % 0 mm 0 W/m2
04:55 7.2 °C 5.3 °C 1014.4 hPa WNW 9.7 km/h 25.7 km/h 88 % 0 mm 0 W/m2
05:00 7.1 °C 5.3 °C 1014.4 hPa WNW 11.3 km/h 25.7 km/h 88 % 0 mm 0 W/m2
05:05 7.1 °C 5.3 °C 1014.4 hPa WNW 12.9 km/h 25.7 km/h 88 % 0 mm 0 W/m2
05:10 7.1 °C 5.4 °C 1014.4 hPa WNW 12.9 km/h 25.7 km/h 89 % 0 mm 0 W/m2
05:15 7.2 °C 5.5 °C 1014.1 hPa West 14.5 km/h 25.7 km/h 89 % 0 mm 0 W/m2
05:25 7.1 °C 5.4 °C 1013.8 hPa West 17.7 km/h 25.7 km/h 89 % 0 mm 0 W/m2
05:30 7.1 °C 5.4 °C 1013.8 hPa West 17.7 km/h 17.7 km/h 89 % 0 mm 0 W/m2
05:35 7.1 °C 5.4 °C 1014.1 hPa West 19.3 km/h 22.5 km/h 89 % 0 mm 0 W/m2
05:40 7.1 °C 5.3 °C 1014.1 hPa West 17.7 km/h 25.7 km/h 88 % 0 mm 0 W/m2
05:45 7.1 °C 5.3 °C 1014.1 hPa WNW 16.1 km/h 25.7 km/h 88 % 0 mm 0 W/m2
05:50 7.1 °C 5.3 °C 1014.4 hPa WNW 17.7 km/h 25.7 km/h 88 % 0 mm 0 W/m2
05:55 7.1 °C 5.1 °C 1014.4 hPa WNW 17.7 km/h 25.7 km/h 87 % 0 mm 0 W/m2
06:05 7.1 °C 5.1 °C 1014.4 hPa West 16.1 km/h 25.7 km/h 87 % 0 mm 0 W/m2
06:15 7.1 °C 5.1 °C 1014.1 hPa West 19.3 km/h 19.3 km/h 87 % 0 mm 0 W/m2
06:20 7 °C 5 °C 1014.1 hPa West 17.7 km/h 25.7 km/h 87 % 0 mm 0 W/m2
06:25 7 °C 5 °C 1014.1 hPa West 17.7 km/h 25.7 km/h 87 % 0 mm 0 W/m2
06:30 6.9 °C 4.9 °C 1014.1 hPa West 16.1 km/h 16.1 km/h 87 % 0 mm 0 W/m2
06:35 6.8 °C 4.8 °C 1014.4 hPa WNW 14.5 km/h 25.7 km/h 87 % 0 mm 0 W/m2
06:40 6.8 °C 4.8 °C 1014.4 hPa West 12.9 km/h 12.9 km/h 87 % 0 mm 0 W/m2
06:50 6.6 °C 4.8 °C 1014.4 hPa West 9.7 km/h 9.7 km/h 88 % 0 mm 0 W/m2
07:00 6.5 °C 4.7 °C 1014.8 hPa NW 8 km/h 25.7 km/h 88 % 0 mm 0 W/m2
07:05 6.4 °C 4.6 °C 1014.8 hPa WNW 6.4 km/h 25.7 km/h 88 % 0 mm 0 W/m2
07:15 6.3 °C 4.7 °C 1014.8 hPa WNW 6.4 km/h 25.7 km/h 89 % 0 mm 5 W/m2
07:20 6.2 °C 4.6 °C 1014.8 hPa WNW 9.7 km/h 25.7 km/h 89 % 0 mm 9 W/m2
07:25 6.2 °C 4.5 °C 1014.8 hPa WNW 11.3 km/h 25.7 km/h 89 % 0 mm 14 W/m2
07:30 6.1 °C 4.4 °C 1014.8 hPa WNW 11.3 km/h 11.3 km/h 89 % 0 mm 18 W/m2
07:35 6.1 °C 4.6 °C 1014.8 hPa WNW 9.7 km/h 25.7 km/h 90 % 0 mm 23 W/m2
07:45 6.1 °C 4.6 °C 1014.8 hPa WNW 8 km/h 25.7 km/h 90 % 0 mm 37 W/m2
07:50 6.1 °C 4.6 °C 1014.8 hPa NW 4.8 km/h 4.8 km/h 90 % 0 mm 44 W/m2
07:55 6.1 °C 4.6 °C 1014.8 hPa NW 1.6 km/h 25.7 km/h 90 % 0 mm 60 W/m2
08:00 6.1 °C 4.6 °C 1014.8 hPa Calm   25.7 km/h 90 % 0 mm 58 W/m2
08:05 6.2 °C 4.7 °C 1014.4 hPa Calm   25.7 km/h 90 % 0 mm 67 W/m2
08:10 6.3 °C 4.8 °C 1014.8 hPa Calm   25.7 km/h 90 % 0 mm 70 W/m2
08:15 6.3 °C 4.8 °C 1014.8 hPa Calm   25.7 km/h 90 % 0 mm 84 W/m2
08:25 6.6 °C 5.1 °C 1014.8 hPa Calm   25.7 km/h 90 % 0 mm 83 W/m2
08:35 6.7 °C 5 °C 1014.8 hPa South 1.6 km/h 25.7 km/h 89 % 0 mm 105 W/m2
08:40 6.8 °C 5.1 °C 1014.8 hPa SW 1.6 km/h 25.7 km/h 89 % 0 mm 107 W/m2
08:45 6.9 °C 5.2 °C 1014.8 hPa WSW 4.8 km/h 25.7 km/h 89 % 0 mm 155 W/m2
08:50 7.1 °C 5.4 °C 1014.8 hPa West 8 km/h 8 km/h 89 % 0 mm 142 W/m2
09:00 7.4 °C 5.6 °C 1014.8 hPa West 6.4 km/h 25.7 km/h 88 % 0 mm 127 W/m2
09:05 7.5 °C 5.7 °C 1014.8 hPa West 6.4 km/h 25.7 km/h 88 % 0 mm 167 W/m2
09:15 7.8 °C 5.7 °C 1014.8 hPa WNW 8 km/h 25.7 km/h 87 % 0 mm 192 W/m2
09:20 7.9 °C 5.9 °C 1014.4 hPa WSW 12.9 km/h 12.9 km/h 87 % 0 mm 213 W/m2
09:25 8.1 °C 5.9 °C 1014.4 hPa WNW 12.9 km/h 25.7 km/h 86 % 0 mm 262 W/m2
09:35 8.5 °C 6.1 °C 1014.4 hPa West 14.5 km/h 25.7 km/h 85 % 0 mm 258 W/m2
09:40 8.6 °C 6.1 °C 1014.4 hPa West 16.1 km/h 16.1 km/h 84 % 0 mm 269 W/m2
09:45 8.7 °C 6.2 °C 1014.4 hPa West 16.1 km/h 25.7 km/h 84 % 0 mm 258 W/m2
09:50 8.9 °C 6.3 °C 1014.1 hPa WNW 16.1 km/h 25.7 km/h 84 % 0 mm 306 W/m2
10:00 9.2 °C 6.5 °C 1014.1 hPa West 12.9 km/h 12.9 km/h 83 % 0 mm 253 W/m2
10:10 9.3 °C 6.4 °C 1014.1 hPa WSW 14.5 km/h 14.5 km/h 82 % 0 mm 216 W/m2
10:15 9.3 °C 6.2 °C 1014.1 hPa WNW 16.1 km/h 25.7 km/h 81 % 0 mm 237 W/m2
10:20 9.3 °C 6.2 °C 1014.1 hPa WSW 19.3 km/h 19.3 km/h 81 % 0 mm 209 W/m2
10:25 9.3 °C 6.2 °C 1014.1 hPa WNW 19.3 km/h 25.7 km/h 81 % 0 mm 262 W/m2
10:30 9.3 °C 6.2 °C 1014.1 hPa West 16.1 km/h 16.1 km/h 81 % 0 mm 227 W/m2
10:35 9.4 °C 6.3 °C 1014.1 hPa West 14.5 km/h 17.7 km/h 81 % 0 mm 236 W/m2
10:40 9.5 °C 6.6 °C 1014.1 hPa West 14.5 km/h 25.7 km/h 82 % 0 mm 267 W/m2
10:50 9.6 °C 6.5 °C 1013.8 hPa West 14.5 km/h 25.7 km/h 81 % 0 mm 246 W/m2
10:55 9.7 °C 6.6 °C 1013.8 hPa WSW 14.5 km/h 25.7 km/h 81 % 0 mm 320 W/m2
11:00 9.8 °C 6.7 °C 1014.1 hPa NW 16.1 km/h 16.1 km/h 81 % 0 mm 313 W/m2
11:05 10 °C 6.9 °C 1013.8 hPa WSW 16.1 km/h 20.9 km/h 81 % 0 mm 299 W/m2
11:10 10.1 °C 7 °C 1013.8 hPa WNW 16.1 km/h 25.7 km/h 81 % 0 mm 223 W/m2
11:15 10.2 °C 7.1 °C 1013.8 hPa West 12.9 km/h 25.7 km/h 81 % 0 mm 221 W/m2
11:20 10.3 °C 7.2 °C 1013.8 hPa NW 12.9 km/h 12.9 km/h 81 % 0 mm 306 W/m2
11:30 10.5 °C 7.2 °C 1013.4 hPa WSW 12.9 km/h 12.9 km/h 80 % 0 mm 188 W/m2
11:35 10.6 °C 7.4 °C 1013.4 hPa West 11.3 km/h 17.7 km/h 81 % 0 mm 172 W/m2
11:40 10.7 °C 7.3 °C 1013.4 hPa West 11.3 km/h 25.7 km/h 80 % 0 mm 188 W/m2
11:50 10.7 °C 7.6 °C 1013.1 hPa SW 16.1 km/h 16.1 km/h 81 % 0 mm 214 W/m2
11:55 10.8 °C 7.7 °C 1013.4 hPa SW 11.3 km/h 25.7 km/h 81 % 0 mm 163 W/m2
12:00 10.8 °C 7.7 °C 1013.4 hPa SW 11.3 km/h 11.3 km/h 81 % 0 mm 162 W/m2
12:05 10.8 °C 7.7 °C 1013.1 hPa West 11.3 km/h 25.7 km/h 81 % 0 mm 169 W/m2
12:15 10.9 °C 7.8 °C 1012.8 hPa SW 11.3 km/h 25.7 km/h 81 % 0 mm 163 W/m2
12:20 10.8 °C 7.7 °C 1012.8 hPa WSW 11.3 km/h 11.3 km/h 81 % 0 mm 149 W/m2
12:25 10.8 °C 7.7 °C 1012.4 hPa SW 12.9 km/h 12.9 km/h 81 % 0 mm 137 W/m2
12:30 10.7 °C 7.6 °C 1012.4 hPa SW 14.5 km/h 25.7 km/h 81 % 0 mm 120 W/m2
12:35 10.7 °C 7.8 °C 1012.1 hPa SSW 12.9 km/h 25.7 km/h 82 % 0 mm 123 W/m2
12:40 10.7 °C 7.8 °C 1012.1 hPa SSW 11.3 km/h 11.3 km/h 82 % 0 mm 116 W/m2
12:45 10.8 °C 8 °C 1011.7 hPa SW 9.7 km/h 25.7 km/h 83 % 0 mm 104 W/m2
12:55 10.8 °C 8.1 °C 1011.7 hPa SW 11.3 km/h 25.7 km/h 83 % 0 mm 98 W/m2
13:05 10.9 °C 8.1 °C 1011.4 hPa WSW 12.9 km/h 25.7 km/h 83 % 0 mm 88 W/m2
13:10 10.9 °C 8.2 °C 1011.4 hPa SW 16.1 km/h 16.1 km/h 83 % 0 mm 86 W/m2
13:15 11 °C 8.2 °C 1011.4 hPa West 14.5 km/h 25.7 km/h 83 % 0 mm 81 W/m2
13:20 11 °C 8.2 °C 1011.1 hPa WSW 12.9 km/h 25.7 km/h 83 % 0 mm 84 W/m2
13:25 11 °C 8.4 °C 1011.1 hPa WSW 14.5 km/h 25.7 km/h 84 % 0 mm 86 W/m2
13:30 11 °C 8.4 °C 1010.7 hPa SSW 16.1 km/h 16.1 km/h 84 % 0 mm 83 W/m2
13:35 11 °C 8.6 °C 1010.7 hPa WSW 14.5 km/h 17.7 km/h 85 % 0 mm 74 W/m2
13:40 11 °C 8.6 °C 1010.4 hPa SW 16.1 km/h 25.7 km/h 85 % 0 mm 77 W/m2
13:50 11.1 °C 8.8 °C 1010 hPa WSW 16.1 km/h 16.1 km/h 86 % 0 mm 91 W/m2
13:55 11.1 °C 8.8 °C 1010 hPa SW 16.1 km/h 25.7 km/h 86 % 0 mm 105 W/m2
14:00 11.2 °C 9.1 °C 1010 hPa SW 17.7 km/h 17.7 km/h 87 % 0 mm 141 W/m2
14:10 11.4 °C 9.3 °C 1009.7 hPa SW 16.1 km/h 16.1 km/h 87 % 0 mm 142 W/m2
14:15 11.6 °C 9.3 °C 1009.7 hPa WSW 14.5 km/h 25.7 km/h 86 % 0 mm 127 W/m2
14:20 11.7 °C 9.4 °C 1009.7 hPa WSW 14.5 km/h 25.7 km/h 86 % 0 mm 128 W/m2
14:30 12 °C 9.7 °C 1009.4 hPa SSW 14.5 km/h 25.7 km/h 86 % 0 mm 141 W/m2
14:35 12.2 °C 9.8 °C 1009.4 hPa SW 16.1 km/h 25.7 km/h 85 % 0 mm 160 W/m2
14:40 12.4 °C 9.9 °C 1009.4 hPa SW 16.1 km/h 16.1 km/h 85 % 0 mm 141 W/m2
14:45 12.6 °C 9.9 °C 1009.4 hPa West 17.7 km/h 17.7 km/h 84 % 0 mm 127 W/m2
14:50 12.6 °C 9.8 °C 1009.4 hPa WSW 20.9 km/h 20.9 km/h 83 % 0 mm 109 W/m2
14:55 12.7 °C 9.8 °C 1009.4 hPa SW 19.3 km/h 25.7 km/h 83 % 0 mm 113 W/m2
15:00 12.7 °C 10.1 °C 1009.4 hPa WSW 17.7 km/h 25.7 km/h 84 % 0 mm 128 W/m2
15:10 12.6 °C 10.1 °C 1009 hPa WSW 19.3 km/h 25.7 km/h 85 % 0 mm 202 W/m2
15:15 12.5 °C 10.2 °C 1008.7 hPa SW 19.3 km/h 25.7 km/h 86 % 0 mm 105 W/m2
15:20 12.4 °C 10.2 °C 1008.4 hPa SW 16.1 km/h 25.7 km/h 86 % 0 mm 156 W/m2
15:25 12.4 °C 10.3 °C 1008.4 hPa SW 14.5 km/h 25.7 km/h 87 % 0 mm 181 W/m2
15:30 12.4 °C 10.3 °C 1008.4 hPa SW 17.7 km/h 17.7 km/h 87 % 0 mm 171 W/m2
15:35 12.5 °C 10.6 °C 1008.4 hPa WSW 16.1 km/h 25.7 km/h 88 % 0 mm 167 W/m2
15:40 12.4 °C 10.4 °C 1008 hPa SW 12.9 km/h 25.7 km/h 88 % 0 mm 111 W/m2
15:50 12.3 °C 10.4 °C 1008 hPa SW 12.9 km/h 25.7 km/h 88 % 0 mm 146 W/m2
16:00 12.3 °C 10.4 °C 1007.7 hPa SW 12.9 km/h 12.9 km/h 88 % 0 mm 77 W/m2
16:05 12.3 °C 10.3 °C 1007.7 hPa SW 12.9 km/h 16.1 km/h 88 % 0 mm 69 W/m2
16:10 12.2 °C 10.4 °C 1007.3 hPa SW 12.9 km/h 25.7 km/h 89 % 0 mm 81 W/m2
16:15 12.2 °C 10.4 °C 1007.3 hPa WSW 11.3 km/h 25.7 km/h 89 % 0 mm 70 W/m2
16:20 12.2 °C 10.4 °C 1007.3 hPa SSW 12.9 km/h 25.7 km/h 89 % 0 mm 60 W/m2
16:25 12.1 °C 10.3 °C 1007.3 hPa SW 14.5 km/h 25.7 km/h 89 % 0 mm 56 W/m2
16:30 12 °C 10.2 °C 1007 hPa SW 14.5 km/h 25.7 km/h 89 % 0 mm 51 W/m2
16:40 11.9 °C 10.3 °C 1007 hPa SW 14.5 km/h 14.5 km/h 90 % 0 mm 33 W/m2
16:45 11.9 °C 10.3 °C 1007 hPa WSW 14.5 km/h 25.7 km/h 90 % 0 mm 26 W/m2
16:50 11.9 °C 10.3 °C 1007 hPa SSW 12.9 km/h 12.9 km/h 90 % 0 mm 30 W/m2
16:55 11.9 °C 10.3 °C 1007 hPa SW 12.9 km/h 17.7 km/h 90 % 0 mm 18 W/m2
17:00 11.9 °C 10.3 °C 1007 hPa WSW 16.1 km/h 25.7 km/h 90 % 0 mm 11 W/m2
17:05 11.8 °C 10.4 °C 1007 hPa WSW 19.3 km/h 25.7 km/h 91 % 0 mm 5 W/m2
17:10 11.8 °C 10.5 °C 1007 hPa WSW 19.3 km/h 25.7 km/h 92 % 0 mm 5 W/m2
17:15 11.7 °C 10.4 °C 1006.7 hPa West 16.1 km/h 25.7 km/h 92 % 0 mm 0 W/m2
17:25 11.7 °C 10.4 °C 1006.7 hPa WSW 19.3 km/h 29 km/h 92 % 0 mm 0 W/m2
17:30 11.8 °C 10.6 °C 1006.7 hPa WNW 19.3 km/h 19.3 km/h 92 % 0 mm 0 W/m2
17:35 11.9 °C 10.5 °C 1006.3 hPa West 19.3 km/h 25.7 km/h 91 % 0 mm 0 W/m2
17:40 12.1 °C 10.4 °C 1006.3 hPa WSW 19.3 km/h 38.6 km/h 90 % 0 mm 0 W/m2
17:45 12.1 °C 10.3 °C 1006.3 hPa SW 20.9 km/h 38.6 km/h 89 % 0 mm 0 W/m2
17:50 12.2 °C 10.2 °C 1006 hPa West 22.5 km/h 22.5 km/h 88 % 0 mm 0 W/m2
17:55 12.2 °C 10.2 °C 1006 hPa WSW 20.9 km/h 40.2 km/h 88 % 0 mm 0 W/m2
18:05 12.2 °C 10.1 °C 1005.6 hPa WSW 22.5 km/h 35.4 km/h 87 % 0 mm 0 W/m2
18:10 12.2 °C 10.1 °C 1005.6 hPa West 24.1 km/h 38.6 km/h 87 % 0 mm 0 W/m2
18:15 12.2 °C 10.1 °C 1005.6 hPa WSW 27.4 km/h 38.6 km/h 87 % 0 mm 0 W/m2
18:20 12.2 °C 10.1 °C 1005.6 hPa WSW 27.4 km/h 27.4 km/h 87 % 0 mm 0 W/m2
18:25 12.1 °C 9.9 °C 1005.3 hPa SW 24.1 km/h 30.6 km/h 87 % 0 mm 0 W/m2
18:30 12 °C 9.9 °C 1005.6 hPa WSW 27.4 km/h 33.8 km/h 87 % 0 mm 0 W/m2
18:35 11.9 °C 10 °C 1005.6 hPa West 27.4 km/h 33.8 km/h 88 % 0 mm 0 W/m2
18:40 11.8 °C 10.1 °C 1005.3 hPa West 25.7 km/h 25.7 km/h 89 % 0 mm 0 W/m2
18:45 11.7 °C 9.9 °C 1005.3 hPa SW 24.1 km/h 25.7 km/h 89 % 0 mm 0 W/m2
18:55 11.8 °C 10 °C 1005 hPa SW 24.1 km/h 25.7 km/h 89 % 0 mm 0 W/m2
19:00 11.8 °C 9.9 °C 1005 hPa WSW 22.5 km/h 22.5 km/h 88 % 0 mm 0 W/m2
19:05 11.9 °C 9.9 °C 1005 hPa West 22.5 km/h 25.7 km/h 88 % 0 mm 0 W/m2
19:10 12.1 °C 9.9 °C 1005 hPa WSW 20.9 km/h 32.2 km/h 87 % 0 mm 0 W/m2
19:15 12.1 °C 9.8 °C 1005 hPa SW 20.9 km/h 32.2 km/h 86 % 0 mm 0 W/m2
19:20 12.2 °C 9.8 °C 1004.6 hPa West 24.1 km/h 25.7 km/h 85 % 0 mm 0 W/m2
19:25 12.3 °C 9.8 °C 1004.6 hPa SW 25.7 km/h 25.7 km/h 85 % 0 mm 0 W/m2
19:35 12.3 °C 9.7 °C 1004.6 hPa SW 24.1 km/h 25.7 km/h 84 % 0 mm 0 W/m2
19:40 12.3 °C 9.7 °C 1004.6 hPa WSW 25.7 km/h 25.7 km/h 84 % 0 mm 0 W/m2
19:45 12.3 °C 9.7 °C 1004.3 hPa WSW 24.1 km/h 30.6 km/h 84 % 0 mm 0 W/m2
19:55 12.2 °C 9.6 °C 1004.3 hPa West 22.5 km/h 25.7 km/h 84 % 0 mm 0 W/m2
20:00 12.3 °C 9.7 °C 1004.3 hPa WSW 22.5 km/h 22.5 km/h 84 % 0 mm 0 W/m2
20:05 12.3 °C 9.7 °C 1004.3 hPa WSW 25.7 km/h 35.4 km/h 84 % 0 mm 0 W/m2
20:10 12.3 °C 9.7 °C 1004.3 hPa WSW 27.4 km/h 27.4 km/h 84 % 0 mm 0 W/m2
20:20 12.2 °C 9.6 °C 1003.9 hPa WSW 25.7 km/h 33.8 km/h 84 % 0 mm 0 W/m2
20:25 12.1 °C 9.5 °C 1003.6 hPa WSW 27.4 km/h 33.8 km/h 84 % 0 mm 0 W/m2
20:30 12.1 °C 9.6 °C 1003.6 hPa West 29 km/h 30.6 km/h 85 % 0 mm 0 W/m2
20:35 12.1 °C 9.4 °C 1003.6 hPa SW 29 km/h 30.6 km/h 84 % 0 mm 0 W/m2
20:45 12.1 °C 9.5 °C 1003.3 hPa SSW 32.2 km/h 35.4 km/h 84 % 0 mm 0 W/m2
20:50 12.1 °C 9.5 °C 1003.3 hPa West 30.6 km/h 30.6 km/h 84 % 0 mm 0 W/m2
20:55 12.1 °C 9.5 °C 1003.3 hPa SW 29 km/h 41.8 km/h 84 % 0 mm 0 W/m2
21:05 12.1 °C 9.4 °C 1003.3 hPa WSW 29 km/h 29 km/h 84 % 0 mm 0 W/m2
21:10 12 °C 9.6 °C 1003.3 hPa West 29 km/h 29 km/h 85 % 0 mm 0 W/m2
21:15 11.9 °C 9.6 °C 1002.9 hPa West 27.4 km/h 29 km/h 86 % 0 mm 0 W/m2
21:20 11.8 °C 9.7 °C 1003.3 hPa WSW 27.4 km/h 32.2 km/h 87 % 0 mm 0 W/m2
21:30 11.7 °C 9.6 °C 1002.9 hPa SW 25.7 km/h 25.7 km/h 87 % 0 mm 0 W/m2
21:40 11.7 °C 9.6 °C 1002.9 hPa WSW 22.5 km/h 29 km/h 87 % 0 mm 0 W/m2
21:50 11.7 °C 9.7 °C 1002.9 hPa West 20.9 km/h 20.9 km/h 88 % 0 mm 0 W/m2
21:55 11.7 °C 9.8 °C 1002.9 hPa WSW 19.3 km/h 25.7 km/h 88 % 0 mm 0 W/m2
22:00 11.7 °C 9.8 °C 1002.6 hPa WSW 19.3 km/h 25.7 km/h 88 % 0 mm 0 W/m2
22:10 11.9 °C 9.8 °C 1002.6 hPa SW 20.9 km/h 20.9 km/h 87 % 0 mm 0 W/m2
22:20 11.9 °C 9.8 °C 1002.6 hPa SW 20.9 km/h 25.7 km/h 87 % 0 mm 0 W/m2
22:25 11.8 °C 9.7 °C 1002.3 hPa SW 19.3 km/h 25.7 km/h 87 % 0 mm 0 W/m2
22:30 11.8 °C 9.9 °C 1001.9 hPa WSW 20.9 km/h 20.9 km/h 88 % 0 mm 0 W/m2
22:35 11.8 °C 9.7 °C 1001.9 hPa SW 19.3 km/h 24.1 km/h 87 % 0 mm 0 W/m2
22:40 11.8 °C 9.7 °C 1001.9 hPa West 17.7 km/h 25.7 km/h 87 % 0 mm 0 W/m2
22:45 11.8 °C 9.7 °C 1001.9 hPa SW 17.7 km/h 30.6 km/h 87 % 0 mm 0 W/m2
22:50 11.8 °C 9.7 °C 1001.6 hPa SW 19.3 km/h 19.3 km/h 87 % 0 mm 0 W/m2
23:00 11.7 °C 9.8 °C 1001.6 hPa WSW 19.3 km/h 30.6 km/h 88 % 0 mm 0 W/m2
23:05 11.7 °C 9.7 °C 1001.6 hPa West 20.9 km/h 30.6 km/h 88 % 0 mm 0 W/m2
23:10 11.6 °C 9.7 °C 1001.6 hPa SW 19.3 km/h 25.7 km/h 88 % 0 mm 0 W/m2
23:15 11.6 °C 9.6 °C 1001.2 hPa West 20.9 km/h 25.7 km/h 88 % 0 mm 0 W/m2
23:20 11.5 °C 9.6 °C 1001.2 hPa West 25.7 km/h 25.7 km/h 88 % 0 mm 0 W/m2
23:25 11.4 °C 9.7 °C 1001.2 hPa WNW 29 km/h 33.8 km/h 89 % 0 mm 0 W/m2
23:30 11.4 °C 9.7 °C 1000.6 hPa WSW 35.4 km/h 37 km/h 89 % 0 mm 0 W/m2
23:35 11.3 °C 9.6 °C 1001.2 hPa WNW 33.8 km/h 38.6 km/h 89 % 0 mm 0 W/m2
23:45 11.3 °C 9.7 °C 1000.6 hPa WNW 33.8 km/h 48.3 km/h 90 % 0 mm 0 W/m2
23:55 11.2 °C 9.6 °C 1000.9 hPa WSW 35.4 km/h 48.3 km/h 90 % 0 mm 0 W/m2
Delerius-Weather
Compliments of Weather Underground - 2 mb

Data updates at regular intervals.